Flag for United Kingdom Weather past 2 weeks in West Bromwich, England, United Kingdom

Now
61 °F

Light rain. Fog.


Feels Like: 61 °F
Forecast: 57 / 68 °F
Wind: 6 mph from Northeast

Location: Birmingham / Airport

Current Time: Sep 19, 2014 at 12:53:28 PM

Latest Report: Sep 19, 2014 at 12:20 PM


Visibility: 1 mi

Pressure: 29.89 "Hg

Humidity: 94%

Dew point: 59 °F

Location of West BromwichLocation

Historic Weather in West Bromwich — Graph

°F

West Bromwich temperature yesterday

Maximum temperature yesterday: 73 °F (at 3:20 PM)
Minimum temperature yesterday: 59 °F (at 4:50 AM)
Average temperature yesterday: 65 °F

Past Weeks' High & Low Weather Summary

 TemperatureHumidityPressure
High73 °F (Sep 18, 3:20 PM)100% (Sep 9, 6:50 AM)30.36 "Hg (Sep 9, 6:50 AM)
Low48 °F (Sep 8, 4:20 AM)46% (Sep 7, 1:50 PM)29.80 "Hg (Sep 18, 3:20 PM)
Average61 °F77%30.08 "Hg
* Reported Sep 4 11:20 AM — Sep 19 11:50 AM, West Bromwich, Weather by CustomWeather, © 2014

Note: Actual official high and low records may vary slightly from our data, if they occured in-between our weather recording intervals... More about our weather records

Advertising

West Bromwich weather history for previous 24 hours

 ConditionsComfort  
Time TempWeatherWind HumidityBarometerVisibility
11:50 AM
Sep 19
61 °FLow clouds.8 mph94%29.89 "Hg1 mi
11:20 AM61 °FLow clouds.9 mph94%29.89 "Hg1 mi
10:50 AM59 °FFog.7 mph100%29.89 "Hg1 mi
10:20 AM59 °FFog.7 mph100%29.89 "Hg1 mi
9:50 AM61 °FDrizzle. Fog.8 mph94%29.89 "Hg1 mi
9:20 AM61 °FDrizzle. Low clouds.7 mph94%29.89 "Hg1 mi
8:50 AM59 °FDrizzle. Low clouds.8 mph100%29.86 "Hg1 mi
8:20 AM59 °FFog.9 mph94%29.86 "Hg1 mi
7:50 AM59 °FFog.9 mph94%29.86 "Hg1 mi
7:20 AM59 °FLow clouds.8 mph94%29.86 "Hg1 mi
6:50 AM59 °FLow clouds.8 mph94%29.86 "Hg1 mi
6:20 AM59 °FLow clouds.7 mph94%29.86 "Hg2 mi
5:50 AM59 °FMostly cloudy.7 mph94%29.86 "Hg2 mi
5:20 AM59 °FLow clouds.8 mph94%29.86 "Hg2 mi
4:50 AM59 °FLow clouds.7 mph94%29.86 "Hg2 mi
4:20 AM59 °FMostly cloudy.9 mph94%29.86 "Hg2 mi
3:50 AM59 °FLow clouds.7 mph94%29.86 "Hg2 mi
3:20 AM61 °FLow clouds.7 mph88%29.86 "Hg2 mi
2:50 AM61 °FLow clouds.7 mph88%29.86 "Hg2 mi
2:20 AM61 °FLow clouds.8 mph88%29.86 "Hg2 mi
1:50 AM61 °FLow clouds.8 mph88%29.86 "Hg2 mi
1:20 AM61 °FLow clouds.10 mph88%29.86 "Hg2 mi
12:50 AM61 °FLow clouds.10 mph88%29.86 "Hg2 mi
12:20 AM61 °FLow clouds.9 mph94%29.86 "Hg2 mi
11:50 PM
Sep 18
61 °FLow clouds.8 mph94%29.86 "Hg2 mi
11:20 PM61 °FPassing clouds.7 mph94%29.86 "Hg2 mi
10:50 PM63 °FPassing clouds.8 mph88%29.86 "Hg2 mi
10:20 PM63 °FHaze.8 mph88%29.86 "Hg3 mi
9:50 PM64 °FPassing clouds.10 mph83%29.86 "Hg4 mi
9:20 PM66 °FPassing clouds.9 mph78%29.86 "Hg5 mi
8:50 PM66 °FClear.6 mph78%29.86 "Hg10 mi
8:20 PM68 °FClear.7 mph73%29.83 "Hg10 mi
7:50 PM70 °FScattered clouds.5 mph69%29.83 "HgN/A
7:20 PM70 °FPassing clouds.6 mph69%29.83 "HgN/A
6:50 PM72 °FPassing clouds.6 mph65%29.83 "HgN/A
6:20 PM73 °FScattered clouds.7 mph61%29.83 "HgN/A
5:50 PM73 °FScattered clouds.8 mph61%29.83 "HgN/A
5:20 PM73 °FPassing clouds.8 mph61%29.83 "HgN/A
4:50 PM73 °FScattered clouds.10 mph61%29.80 "HgN/A
4:20 PM73 °FScattered clouds.10 mph65%29.80 "HgN/A
3:50 PM73 °FClear.9 mph65%29.80 "Hg6 mi
3:20 PM73 °FPassing clouds.9 mph65%29.80 "Hg5 mi
2:50 PM72 °FScattered clouds.8 mph69%29.83 "Hg4 mi
2:20 PM70 °FScattered clouds.8 mph73%29.83 "Hg4 mi
1:50 PM70 °FScattered clouds.10 mph73%29.83 "Hg4 mi
1:20 PM70 °FPartly sunny.9 mph73%29.83 "Hg4 mi
12:50 PM66 °FPartly sunny.8 mph83%29.86 "Hg3 mi
12:20 PM64 °FPartly sunny.8 mph83%29.86 "Hg2 mi
Weather by CustomWeather, © 2014

See weather overviewHow to use our weather pages